TimeCET,TemperatureF,Dew PointF,Humidity,Sea Level PressureIn,VisibilityMPH,Wind Direction,Wind SpeedMPH,Gust SpeedMPH,PrecipitationIn,Events,Conditions,WindDirDegrees,DateUTC
12:00 AM,24.8,23.0,93,29.86,3.7,NE,3.5,-,N/A,,Mostly Cloudy,40,2013-03-27 23:00:00
12:37 AM,26.6,24.8,93,29.86,4.3,ENE,5.8,-,N/A,,Overcast,60,2013-03-27 23:37:00
1:00 AM,26,24,86,29.94,5,East,6.7,,,,Mist,80,2013-03-28 00:00:00
1:00 AM,26.6,23.0,86,29.86,5.0,East,5.8,-,N/A,,Overcast,90,2013-03-28 00:00:00
1:30 AM,26.6,23.0,86,29.86,5.0,East,5.8,-,N/A,,Overcast,100,2013-03-28 00:30:00
2:00 AM,26.6,23.0,86,29.86,5.0,East,5.8,-,N/A,,Overcast,90,2013-03-28 01:00:00
2:30 AM,26.6,23.0,86,29.83,5.0,East,5.8,-,N/A,,Overcast,90,2013-03-28 01:30:00
3:00 AM,26.6,23.0,86,29.83,5.0,East,8.1,-,N/A,,Overcast,90,2013-03-28 02:00:00
3:30 AM,24.8,23.0,93,29.83,5.0,East,8.1,-,N/A,,Mostly Cloudy,90,2013-03-28 02:30:00
4:00 AM,26.6,23.0,86,29.83,5.0,East,6.9,-,N/A,,Overcast,90,2013-03-28 03:00:00
4:30 AM,26.6,23.0,86,29.83,4.3,East,8.1,-,N/A,Snow,Light Snow,100,2013-03-28 03:30:00
5:00 AM,26.6,24.8,93,29.83,4.3,East,8.1,-,N/A,,Overcast,100,2013-03-28 04:00:00
5:30 AM,26.6,24.8,93,29.83,3.7,ESE,6.9,-,N/A,,Overcast,110,2013-03-28 04:30:00
5:45 AM,26.6,24.8,93,29.83,3.1,East,8.1,-,N/A,,Overcast,100,2013-03-28 04:45:00
6:00 AM,26.6,24.8,93,29.83,2.5,East,8.1,-,N/A,,Overcast,100,2013-03-28 05:00:00
6:30 AM,26.6,24.8,93,29.83,2.2,East,8.1,-,N/A,Snow,Light Snow,100,2013-03-28 05:30:00
7:00 AM,26,24,91,29.92,2,East,8.9,,,Snow,Light Snow,100,2013-03-28 06:00:00
7:00 AM,26.6,24.8,93,29.83,1.9,East,8.1,-,N/A,Snow,Light Snow,100,2013-03-28 06:00:00
7:30 AM,26.6,24.8,93,29.83,1.9,East,8.1,-,N/A,Snow,Light Snow,100,2013-03-28 06:30:00
8:00 AM,26.6,24.8,93,29.83,1.9,ESE,6.9,-,N/A,Snow,Light Snow,110,2013-03-28 07:00:00
8:30 AM,26.6,24.8,93,29.83,1.9,East,9.2,-,N/A,Snow,Light Snow,90,2013-03-28 07:30:00
8:45 AM,28.4,24.8,86,29.83,-9999.0,East,8.1,-,N/A,Snow,Light Snow,100,2013-03-28 07:45:00
9:00 AM,28.4,24.8,86,29.83,2.2,East,9.2,-,N/A,Snow,Light Snow,90,2013-03-28 08:00:00
9:30 AM,28.4,26.6,93,29.83,-9999.0,East,8.1,-,N/A,Snow,Light Snow,100,2013-03-28 08:30:00
10:00 AM,28.4,26.6,93,29.83,2.2,East,6.9,-,N/A,Snow,Light Snow,100,2013-03-28 09:00:00
10:30 AM,30.2,26.6,86,29.83,2.8,ESE,8.1,-,N/A,Snow,Light Snow,110,2013-03-28 09:30:00
10:49 AM,30.2,26.6,86,29.83,2.8,ESE,6.9,-,N/A,Snow,Light Snow,120,2013-03-28 09:49:00
11:00 AM,30.2,26.6,86,29.83,3.1,SE,8.1,-,N/A,Snow,Light Snow,130,2013-03-28 10:00:00
11:30 AM,32.0,26.6,80,29.83,4.3,SSE,6.9,-,N/A,Snow,Light Snow,150,2013-03-28 10:30:00
12:00 PM,32.0,26.6,80,29.83,5.0,SSE,6.9,-,N/A,Snow,Light Snow,150,2013-03-28 11:00:00
12:30 PM,32.0,26.6,80,29.83,5.0,SSE,6.9,-,N/A,,Mostly Cloudy,150,2013-03-28 11:30:00
1:00 PM,33,26,65,29.89,6,South,4.5,,,Snow,Light Snow,170,2013-03-28 12:00:00
1:00 PM,33.8,24.8,70,29.83,5.6,SSE,6.9,-,N/A,,Mostly Cloudy,160,2013-03-28 12:00:00
1:30 PM,33.8,24.8,70,29.83,6.2,ESE,5.8,-,N/A,,Mostly Cloudy,110,2013-03-28 12:30:00
2:00 PM,35.6,24.8,65,29.80,6.2,SSE,6.9,-,N/A,,Mostly Cloudy,150,2013-03-28 13:00:00
2:30 PM,35.6,24.8,65,29.80,6.2,SSE,6.9,-,N/A,,Mostly Cloudy,150,2013-03-28 13:30:00
3:00 PM,35.6,24.8,65,29.80,6.2,SSE,6.9,-,N/A,,Mostly Cloudy,150,2013-03-28 14:00:00
3:30 PM,35.6,24.8,65,29.80,6.2,South,3.5,-,N/A,,Mostly Cloudy,180,2013-03-28 14:30:00
4:00 PM,37.4,24.8,60,29.80,6.2,NNE,3.5,-,N/A,,Mostly Cloudy,30,2013-03-28 15:00:00
4:30 PM,37.4,24.8,60,29.80,6.2,NNE,3.5,-,N/A,,Mostly Cloudy,20,2013-03-28 15:30:00
5:00 PM,37.4,24.8,60,29.77,6.2,NNE,5.8,-,N/A,,Mostly Cloudy,20,2013-03-28 16:00:00
5:30 PM,35.6,24.8,65,29.77,6.2,NNE,5.8,-,N/A,,Mostly Cloudy,20,2013-03-28 16:30:00
6:00 PM,35.6,24.8,65,29.77,6.2,NE,5.8,-,N/A,,Mostly Cloudy,40,2013-03-28 17:00:00
6:30 PM,35.6,24.8,65,29.77,6.2,NE,5.8,-,N/A,,Mostly Cloudy,40,2013-03-28 17:30:00
6:45 PM,35.6,24.8,65,29.77,6.2,SE,11.5,-,N/A,,Mostly Cloudy,130,2013-03-28 17:45:00
7:00 PM,35,26,58,29.84,6,SE,13.4,,,,Overcast,130,2013-03-28 18:00:00
7:00 PM,33.8,26.6,75,29.77,6.2,SE,11.5,-,N/A,,Overcast,130,2013-03-28 18:00:00
7:30 PM,33.8,26.6,75,29.77,6.2,SE,15.0,-,N/A,,Overcast,130,2013-03-28 18:30:00
8:00 PM,33.8,24.8,70,29.77,6.2,SE,12.7,-,N/A,,Partly Cloudy,130,2013-03-28 19:00:00
8:30 PM,32.0,26.6,80,29.77,-9999.0,SE,12.7,-,N/A,,Clear,130,2013-03-28 19:30:00
9:00 PM,32.0,26.6,80,29.77,6.2,SE,9.2,-,N/A,,Scattered Clouds,140,2013-03-28 20:00:00
9:30 PM,33.8,26.6,75,29.77,6.2,SE,9.2,-,N/A,,Mostly Cloudy,130,2013-03-28 20:30:00
10:00 PM,33.8,26.6,75,29.77,6.2,ESE,8.1,-,N/A,,Overcast,120,2013-03-28 21:00:00
10:30 PM,33.8,26.6,75,29.74,6.2,ESE,8.1,-,N/A,,Overcast,120,2013-03-28 21:30:00
11:00 PM,33.8,26.6,75,29.74,6.2,ESE,9.2,-,N/A,,Overcast,120,2013-03-28 22:00:00
11:30 PM,32.0,26.6,80,29.74,6.2,ESE,8.1,-,N/A,,Overcast,120,2013-03-28 22:30:00